Wetbulb
60.87 64.56 70.89 71.62 71.63 72.17 72.33 71.85 71.61 71.61 71.96 72.29 72.46 72.53 72.09 71.91 71.81 71.74 71.78 71.86 72.49 72.52 72.03 71.25 71.09 70.92 70.97 71.52 71.18 71.20 71.35 71.03 70.60 70.16 69.89 71.06 71.28 70.95 72.96 73.14 72.71 71.73 73.01
62.82 65.52 70.32 71.60 71.84 71.72 71.80 71.69 71.50 72.12 72.22 71.94 72.03 71.77 71.20 70.86 70.75 70.63 70.08 70.04 70.46 70.72 70.48 69.97 69.33 69.04 69.52 69.99 70.62 71.24 71.10 70.69 70.33 70.15 69.15 68.75 69.89 73.43 73.37 73.12 72.94 72.23 73.11
64.08 65.49 68.23 71.02 71.90 72.30 72.33 72.25 72.07 71.82 71.74 71.59 71.12 70.66 70.28 69.78 69.59 68.85 68.60 68.65 69.16 69.42 69.25 68.34 67.55 66.61 66.74 67.59 68.56 68.87 68.65 68.00 67.78 68.58 68.56 65.36 65.58 71.98 72.17 73.13 72.74 72.62 72.55
63.57 64.79 65.84 69.74 71.06 71.22 71.95 72.03 72.13 71.95 71.20 70.41 69.65 68.65 67.81 68.79 68.61 67.52 66.69 66.63 66.47 67.03 67.71 66.24 64.61 63.71 63.87 64.27 65.12 65.78 65.55 64.96 64.47 63.41 64.31 65.56 66.07 69.18 71.26 71.52 71.34 70.94 71.28
61.50 62.96 64.74 68.85 69.67 69.62 69.57 69.63 69.24 69.30 69.72 69.13 67.53 66.96 67.87 67.08 65.81 64.52 63.70 63.05 63.70 64.35 63.27 62.35 61.67 61.05 60.91 60.87 61.14 61.34 60.25 59.41 57.89 54.34 56.20 59.84 62.76 66.61 70.65 71.04 70.55 70.28 70.21
59.14 60.89 64.84 68.02 68.91 68.93 68.72 68.86 68.25 68.03 68.03 67.81 66.69 66.49 65.93 64.84 63.24 61.88 61.40 60.90 61.19 61.01 60.76 60.42 59.94 59.43 59.24 58.96 58.45 57.92 58.32 58.08 54.81 49.35 49.42 51.95 55.56 66.09 69.01 70.24 70.61 70.58 70.27
57.22 59.08 62.33 67.45 67.49 67.94 67.85 68.20 67.09 67.14 67.26 66.72 66.29 65.05 63.81 61.90 60.95 60.51 60.01 59.54 59.57 59.56 59.41 59.00 58.42 58.51 58.56 58.53 57.77 57.23 56.68 54.40 47.93 47.48 50.03 52.13 56.09 64.40 69.17 69.92 70.51 70.03 69.61
56.81 57.98 60.11 64.32 66.01 66.73 67.06 67.22 66.82 66.70 66.09 64.76 63.88 62.44 61.16 60.09 59.68 59.23 58.72 58.69 58.68 58.58 58.51 57.99 57.93 57.55 57.30 56.79 55.74 55.31 54.76 52.84 46.27 45.47 46.80 49.52 59.40 63.61 65.85 67.06 68.04 69.59 69.26
55.40 56.15 57.06 59.28 61.67 63.82 65.41 65.61 66.08 65.45 63.82 62.35 61.18 60.21 59.40 58.64 57.94 57.60 57.05 57.76 58.12 58.07 57.75 57.42 55.67 55.42 55.27 55.01 54.60 53.57 52.64 51.79 42.80 44.56 46.88 48.84 57.67 61.21 62.84 63.14 63.98 64.71 65.90
52.65 53.80 53.96 55.12 56.81 57.23 58.15 61.85 62.86 63.57 62.29 60.99 59.61 59.17 58.12 55.94 55.71 55.92 56.39 57.24 57.09 56.71 56.33 54.89 53.64 53.07 53.19 52.86 51.86 51.14 49.87 48.17 42.28 42.90 44.26 49.09 56.36 59.13 60.52 60.79 61.18 61.92 62.63
50.96 51.42 51.51 52.10 52.69 53.02 53.69 56.09 59.48 60.54 60.27 59.45 57.72 56.78 53.84 46.05 47.19 48.31 53.33 55.98 55.08 54.49 54.22 52.92 51.40 49.99 48.91 49.26 49.65 48.74 46.38 41.18 40.94 41.30 42.53 51.92 54.35 56.95 58.32 58.78 59.34 60.00 60.56
49.29 49.65 50.17 49.71 49.69 49.37 51.52 51.82 51.82 52.49 51.24 49.76 48.74 47.51 43.30 42.43 43.48 46.43 50.75 52.99 52.00 51.51 51.67 50.56 48.87 46.79 43.03 39.35 39.66 43.18 39.17 39.19 39.16 39.76 41.36 49.88 52.45 55.28 56.81 57.65 58.41 58.96 59.47
50.13 49.35 48.95 49.18 47.80 46.88 47.77 47.88 47.38 46.13 45.02 44.44 43.45 43.10 40.76 41.53 43.39 41.71 40.80 39.09 38.58 41.64 37.64 39.23 38.16 37.69 37.63 37.79 37.89 37.30 37.46 37.31 36.82 38.32 41.66 47.60 50.20 52.96 54.89 55.91 57.16 58.10 58.46
45.80 48.41 47.77 47.75 46.74 44.56 44.28 46.29 44.88 43.92 42.00 41.31 40.58 41.46 39.57 40.02 38.43 37.90 37.48 36.40 35.76 35.57 35.07 35.41 35.54 36.15 36.25 37.15 37.00 36.39 36.21 35.93 36.07 37.31 38.78 45.10 48.24 51.65 53.58 54.82 55.65 56.80 57.76
42.50 46.16 46.25 46.33 46.30 44.92 42.81 43.83 42.40 41.80 42.50 40.70 39.70 40.47 39.47 38.30 37.16 36.84 36.17 35.25 34.29 34.52 34.15 33.92 34.25 34.71 34.84 35.82 35.85 35.59 35.27 35.54 35.90 36.54 36.50 43.08 46.59 49.87 52.23 54.00 55.07 55.59 56.41
41.99 42.54 44.48 45.30 45.50 44.32 42.47 42.68 42.93 41.68 40.75 39.75 38.65 39.45 38.88 37.92 36.55 36.01 35.06 34.28 33.50 33.65 33.58 33.62 33.50 33.31 33.28 34.51 34.51 35.05 34.88 35.16 35.60 35.52 35.65 36.29 44.66 47.19 50.16 52.81 53.83 54.54 55.72
42.85 41.94 42.15 44.00 44.15 43.54 42.31 41.41 41.16 40.80 40.73 39.66 38.47 38.27 38.29 37.31 35.81 34.91 34.49 33.21 32.97 33.02 33.28 32.99 32.97 32.59 32.29 33.42 32.88 33.85 34.52 34.99 35.06 34.84 35.41 35.97 37.62 43.65 47.88 50.99 52.05 52.51 53.41
42.80 41.11 41.78 44.09 43.15 42.97 42.26 41.19 40.65 39.93 40.15 39.54 37.14 36.51 37.19 36.46 35.53 34.10 33.49 32.56 32.67 32.31 32.09 31.85 31.43 30.99 30.89 31.24 31.19 32.20 32.66 33.81 34.24 34.69 35.29 36.01 36.22 38.88 41.53 48.92 50.50 50.85 52.16
42.98 42.36 40.83 41.99 42.25 42.04 41.64 40.90 39.92 39.03 39.36 38.68 35.64 35.43 35.48 35.36 35.00 34.10 32.95 32.15 32.22 31.60 31.28 31.88 30.37 30.37 29.79 30.36 31.88 31.95 31.79 31.89 32.82 34.91 34.40 34.69 35.47 36.33 37.82 43.96 45.06 46.48 49.06
42.10 42.46 41.88 41.42 41.81 41.52 40.73 38.78 36.91 37.44 36.62 36.32 36.21 34.96 34.87 34.98 34.15 32.89 32.07 31.70 31.75 30.91 30.56 30.21 29.73 30.19 29.97 29.40 31.95 31.45 30.54 31.46 31.98 32.60 32.22 34.04 34.68 34.91 35.17 36.15 36.65 37.67 42.58
39.92 40.72 40.90 40.01 40.25 40.57 38.31 36.88 37.16 37.33 36.36 35.27 34.69 34.76 34.28 33.79 33.37 32.06 31.17 30.80 30.76 30.20 30.01 29.86 29.85 29.21 29.29 28.96 28.21 28.89 29.83 31.51 31.22 30.70 31.17 31.45 32.61 33.22 34.16 34.24 33.46 34.25 34.95
40.84 40.54 40.35 39.96 39.27 40.28 40.07 40.40 37.53 38.75 33.45 35.34 34.20 33.29 33.40 32.81 32.26 31.48 31.15 30.25 29.99 29.11 29.32 29.48 29.68 28.37 28.54 28.21 26.82 26.73 25.72 28.38 30.54 31.15 30.51 32.17 29.86 31.85 32.34 32.97 32.65 33.35 33.98
37.97 38.89 39.46 39.71 38.71 40.24 39.96 36.64 31.64 31.16 29.99 29.70 30.45 32.26 32.45 32.47 31.91 31.43 30.59 30.34 29.69 29.51 28.72 28.46 28.42 28.24 27.20 27.34 27.57 27.03 24.50 24.55 25.43 28.75 29.39 29.37 29.76 29.64 29.71 30.98 32.13 33.01 33.83
39.21 37.88 38.72 38.94 38.09 39.64 38.69 36.97 34.72 35.94 34.59 34.56 35.65 33.99 31.89 31.69 31.06 30.65 30.40 29.76 29.24 28.84 28.07 27.98 28.81 27.96 27.37 26.25 27.76 29.32 27.70 26.99 23.99 23.13 26.82 27.47 28.42 28.90 28.42 29.12 30.07 31.27 31.62
36.13 35.70 36.71 37.22 37.68 38.42 37.83 37.92 36.17 36.53 36.63 31.05 29.95 30.00 30.71 29.67 30.39 29.91 30.01 28.79 28.13 27.91 27.79 28.24 27.74 27.45 26.64 26.58 26.20 26.32 25.93 25.35 25.32 23.76 22.57 24.62 26.47 27.23 28.16 28.70 29.03 29.42 31.09
33.18 33.86 35.02 35.66 36.43 36.53 37.12 36.77 35.98 36.58 32.46 31.39 30.12 30.64 30.29 29.94 29.30 29.41 29.26 28.24 27.55 27.51 27.47 27.83 27.60 27.34 26.92 26.69 26.57 26.30 25.85 24.11 24.38 23.08 22.57 22.26 22.40 24.72 27.39 27.69 27.84 28.93 30.20
MSLP
1016.15 1015.94 1015.91 1016.07 1016.30 1016.46 1016.64 1016.88 1017.04 1017.24 1017.41 1017.43 1017.51 1017.66 1017.84 1017.98 1018.22 1018.29 1018.28 1018.34 1018.18 1018.16 1018.31 1018.39 1018.45 1018.48 1018.50 1018.58 1018.51 1018.37 1018.37 1018.36 1018.32 1018.17 1017.98 1017.74 1017.72 1017.59 1017.54 1017.65 1017.70 1017.62 1017.47
1015.13 1015.59 1015.75 1015.92 1016.14 1016.43 1016.67 1016.86 1017.08 1017.19 1017.26 1017.44 1017.58 1017.73 1017.85 1018.04 1018.26 1018.45 1018.50 1018.64 1018.52 1018.40 1018.57 1018.66 1018.72 1018.95 1018.93 1018.79 1018.67 1018.57 1018.62 1018.68 1018.62 1018.48 1018.26 1018.07 1017.84 1017.68 1017.65 1017.77 1017.81 1017.69 1017.62
1015.24 1015.47 1015.61 1015.82 1016.05 1016.28 1016.56 1016.82 1017.02 1017.22 1017.34 1017.53 1017.72 1017.97 1018.05 1018.11 1018.38 1018.59 1018.61 1018.75 1018.70 1018.73 1018.86 1018.92 1019.15 1019.36 1019.33 1019.06 1018.96 1018.94 1019.07 1019.12 1019.02 1018.86 1018.64 1018.40 1018.27 1017.99 1017.86 1017.88 1017.82 1017.69 1017.58
1015.27 1015.59 1015.79 1015.87 1016.02 1016.40 1016.54 1016.72 1016.98 1017.18 1017.39 1017.63 1017.90 1018.25 1018.39 1018.50 1018.65 1018.80 1018.85 1018.84 1018.96 1018.98 1019.04 1019.21 1019.35 1019.55 1019.53 1019.43 1019.34 1019.38 1019.41 1019.34 1019.23 1019.10 1019.03 1018.73 1018.59 1018.27 1017.98 1017.91 1017.92 1017.93 1017.81
1015.59 1015.76 1015.96 1016.15 1016.29 1016.52 1016.74 1016.87 1017.02 1017.20 1017.32 1017.74 1018.05 1018.33 1018.46 1018.67 1018.91 1019.22 1019.27 1019.27 1019.20 1019.37 1019.38 1019.56 1019.50 1019.65 1019.68 1019.72 1019.48 1019.54 1019.49 1019.46 1019.45 1019.44 1019.36 1019.17 1019.01 1018.53 1018.23 1018.06 1018.08 1018.16 1018.19
1015.79 1015.95 1016.14 1016.26 1016.45 1016.62 1016.80 1016.95 1017.19 1017.35 1017.56 1017.85 1018.21 1018.45 1018.66 1018.91 1019.14 1019.17 1019.31 1019.37 1019.48 1019.59 1019.64 1019.74 1019.80 1019.81 1019.78 1019.83 1019.75 1019.98 1019.70 1019.54 1019.79 1019.75 1019.62 1019.47 1019.23 1018.77 1018.37 1018.21 1018.16 1018.26 1018.22
1015.80 1016.03 1016.21 1016.37 1016.51 1016.76 1016.87 1016.93 1017.13 1017.45 1017.72 1018.16 1018.31 1018.63 1018.85 1019.04 1019.20 1019.32 1019.40 1019.63 1019.66 1019.73 1019.85 1019.88 1019.92 1019.88 1019.78 1020.08 1020.24 1020.20 1020.03 1020.04 1020.11 1020.19 1019.93 1019.66 1019.52 1018.88 1018.41 1018.28 1018.20 1018.27 1018.26
1015.71 1015.93 1016.10 1016.25 1016.50 1016.73 1016.88 1017.04 1017.36 1017.55 1017.89 1018.23 1018.44 1018.80 1019.03 1019.23 1019.42 1019.58 1019.66 1019.72 1019.74 1019.92 1020.04 1020.25 1020.25 1020.20 1020.25 1020.31 1020.35 1020.50 1020.43 1020.50 1020.54 1020.55 1020.37 1020.07 1019.63 1018.95 1018.61 1018.54 1018.48 1018.44 1018.39
1016.04 1016.19 1016.19 1016.32 1016.53 1016.76 1016.91 1017.11 1017.35 1017.65 1017.97 1018.29 1018.57 1018.81 1019.09 1019.27 1019.56 1019.76 1019.84 1019.88 1019.96 1020.09 1020.27 1020.39 1020.46 1020.49 1020.62 1020.69 1020.80 1020.87 1020.70 1020.72 1020.88 1021.04 1020.73 1020.36 1019.87 1019.23 1018.99 1018.86 1018.80 1018.81 1018.73
1016.34 1016.44 1016.51 1016.62 1016.71 1016.89 1017.08 1017.24 1017.46 1017.75 1018.12 1018.37 1018.66 1019.02 1019.36 1019.77 1019.86 1020.03 1020.04 1019.94 1020.14 1020.29 1020.46 1020.71 1020.78 1020.84 1020.85 1020.95 1021.04 1021.10 1021.02 1021.12 1021.13 1021.17 1021.01 1020.65 1019.96 1019.47 1019.22 1019.17 1019.18 1019.06 1018.94
1016.44 1016.42 1016.49 1016.68 1016.94 1017.14 1017.34 1017.47 1017.67 1017.89 1018.20 1018.57 1018.95 1019.32 1019.64 1020.17 1020.39 1020.43 1020.22 1020.16 1020.34 1020.50 1020.79 1020.97 1021.11 1021.32 1021.47 1021.39 1021.21 1021.37 1021.39 1021.55 1021.43 1021.45 1021.22 1020.62 1020.17 1019.84 1019.55 1019.29 1019.31 1019.18 1019.08
1016.18 1016.11 1016.29 1016.51 1016.76 1017.17 1017.35 1017.66 1017.88 1018.09 1018.44 1018.85 1019.29 1019.70 1020.23 1020.56 1020.60 1020.58 1020.55 1020.56 1020.75 1020.91 1021.07 1021.16 1021.42 1021.70 1021.90 1021.87 1021.74 1021.66 1021.70 1021.74 1021.81 1021.69 1021.42 1020.81 1020.44 1020.04 1019.76 1019.64 1019.41 1019.15 1019.11
1015.14 1015.83 1015.88 1016.20 1016.62 1017.06 1017.39 1017.79 1018.14 1018.37 1018.70 1019.11 1019.39 1019.82 1020.25 1020.58 1020.80 1020.89 1021.06 1021.34 1021.43 1021.43 1021.65 1021.76 1021.90 1021.94 1021.94 1022.03 1022.01 1022.11 1021.94 1021.92 1022.04 1021.78 1021.58 1021.16 1020.93 1020.52 1020.15 1019.81 1019.58 1019.34 1019.15
1014.47 1014.71 1015.40 1015.82 1016.30 1016.77 1017.23 1017.63 1017.99 1018.39 1018.81 1019.20 1019.39 1019.72 1020.20 1020.63 1020.94 1021.06 1021.22 1021.28 1021.39 1021.60 1021.80 1021.98 1022.15 1022.22 1022.16 1022.10 1022.06 1022.04 1021.96 1021.99 1022.02 1022.00 1021.80 1021.44 1021.12 1020.63 1020.23 1019.87 1019.76 1019.56 1019.35
1013.64 1013.89 1014.41 1015.18 1015.65 1016.16 1016.80 1017.21 1017.71 1018.11 1018.48 1018.82 1019.24 1019.45 1019.76 1020.43 1020.88 1021.16 1021.38 1021.52 1021.58 1021.63 1021.90 1022.15 1022.26 1022.34 1022.26 1022.14 1022.16 1022.17 1022.13 1022.03 1021.97 1021.82 1021.95 1021.50 1021.16 1020.79 1020.58 1020.18 1019.88 1019.74 1019.47
1012.49 1012.79 1013.52 1014.04 1014.67 1015.38 1016.04 1016.50 1016.87 1017.50 1018.02 1018.57 1018.99 1019.22 1019.52 1020.04 1020.59 1021.10 1021.59 1021.65 1021.67 1021.65 1021.79 1021.93 1022.20 1022.27 1022.31 1022.16 1022.36 1022.14 1022.15 1021.99 1021.85 1021.87 1021.91 1021.77 1021.18 1021.02 1020.78 1020.38 1020.15 1019.72 1019.62
1011.13 1012.03 1012.32 1013.07 1013.86 1014.40 1015.00 1015.71 1016.33 1016.85 1017.49 1018.06 1018.42 1018.85 1019.26 1019.83 1020.44 1020.94 1021.29 1021.57 1021.61 1021.59 1021.68 1021.98 1022.14 1022.24 1022.45 1022.23 1022.37 1022.24 1022.10 1021.90 1021.96 1021.77 1021.86 1021.76 1021.46 1021.21 1020.94 1020.75 1020.29 1020.22 1020.06
1010.39 1010.52 1011.27 1011.94 1012.61 1013.37 1014.04 1014.81 1015.64 1016.35 1016.88 1017.40 1017.95 1018.43 1018.95 1019.53 1019.99 1020.59 1021.02 1021.36 1021.29 1021.57 1021.75 1021.91 1022.16 1022.47 1022.59 1022.49 1022.44 1022.19 1022.17 1022.06 1021.88 1021.90 1021.86 1021.75 1021.70 1021.55 1021.42 1020.98 1020.96 1020.90 1020.50
1008.44 1009.47 1010.23 1010.80 1011.31 1012.06 1013.20 1014.06 1014.89 1015.65 1016.26 1016.86 1017.55 1018.08 1018.53 1019.01 1019.50 1020.06 1020.58 1021.00 1021.08 1021.54 1021.70 1021.84 1022.28 1022.40 1022.58 1022.59 1022.43 1022.22 1022.21 1022.16 1022.07 1022.16 1022.08 1022.04 1021.92 1021.89 1021.72 1021.61 1021.68 1021.46 1021.16
1007.37 1008.07 1008.89 1009.78 1010.46 1011.48 1012.60 1013.74 1014.72 1015.45 1016.07 1016.56 1017.05 1017.59 1018.11 1018.58 1019.11 1019.73 1020.31 1020.73 1020.99 1021.36 1021.70 1021.84 1022.05 1022.33 1022.55 1022.60 1022.39 1022.31 1022.25 1022.14 1022.28 1022.28 1022.53 1022.49 1022.47 1022.51 1022.36 1022.49 1022.32 1022.12 1021.79
1006.66 1007.27 1007.72 1008.71 1009.51 1010.69 1011.92 1013.01 1014.19 1014.48 1015.45 1016.14 1016.57 1016.99 1017.63 1018.22 1018.77 1019.41 1020.03 1020.60 1020.88 1021.21 1021.37 1021.56 1022.03 1022.40 1022.75 1022.44 1022.38 1022.40 1022.46 1022.36 1022.38 1022.57 1022.64 1022.78 1022.83 1022.96 1022.80 1022.77 1022.67 1022.67 1022.22
1005.27 1006.14 1007.09 1007.72 1008.71 1009.44 1010.39 1011.20 1012.30 1013.43 1014.66 1015.29 1016.08 1016.65 1017.13 1017.76 1018.36 1019.04 1019.57 1020.14 1020.51 1020.90 1021.23 1021.47 1021.66 1022.45 1022.97 1022.92 1023.16 1023.55 1023.33 1023.00 1022.89 1022.95 1023.03 1022.99 1023.03 1022.90 1022.88 1022.70 1022.47 1022.51 1022.39
1005.00 1005.35 1005.87 1006.55 1007.52 1008.39 1009.49 1010.98 1012.26 1013.55 1014.77 1015.59 1016.06 1016.40 1016.71 1017.23 1017.90 1018.51 1019.18 1019.75 1020.08 1020.44 1020.65 1020.86 1021.30 1021.80 1022.72 1023.16 1023.06 1023.34 1023.88 1024.12 1024.02 1023.25 1023.18 1023.29 1023.26 1023.30 1023.34 1023.15 1022.81 1022.66 1022.56
1003.85 1004.64 1005.42 1006.23 1007.11 1007.95 1008.80 1009.78 1010.74 1011.30 1012.74 1013.36 1014.02 1015.28 1016.13 1016.79 1017.48 1018.07 1018.77 1019.43 1019.99 1020.39 1020.56 1020.68 1020.89 1021.24 1021.69 1022.64 1023.22 1023.34 1023.66 1024.10 1024.54 1024.31 1023.49 1023.35 1023.19 1023.30 1023.42 1023.19 1023.01 1022.90 1022.68
1003.60 1004.23 1005.18 1005.97 1006.91 1007.51 1008.24 1008.82 1009.47 1010.34 1011.35 1012.27 1013.50 1014.62 1015.46 1016.24 1016.74 1017.33 1017.94 1018.78 1019.60 1020.44 1020.61 1020.68 1021.08 1021.48 1021.63 1022.14 1022.41 1023.24 1023.62 1024.07 1024.43 1025.16 1025.10 1024.50 1023.95 1023.53 1023.54 1023.43 1023.20 1022.86 1022.44
1003.78 1003.99 1004.77 1005.77 1006.59 1007.19 1007.77 1008.39 1008.95 1009.62 1010.59 1011.72 1012.70 1013.71 1014.64 1015.54 1016.28 1016.77 1017.31 1017.82 1018.40 1019.24 1019.94 1020.53 1020.92 1021.24 1021.69 1021.90 1022.14 1022.24 1022.59 1023.30 1023.97 1024.42 1025.04 1024.58 1024.56 1023.77 1023.27 1022.93 1022.85 1022.89 1022.87
Wind_Speed
6 7 10 13 13 12 13 12 11 11 11 12 13 13 13 12 10 10 10 9 11 12 11 11 11 11 11 10 7 8 9 10 10 11 12 11 10 7 2 4 4 4 6
10 8 10 11 13 15 12 12 12 13 13 12 12 12 11 11 11 11 10 10 10 11 11 10 12 12 10 11 13 12 11 12 12 13 12 11 11 7 6 5 4 4 6
10 7 8 12 12 14 14 14 13 13 13 12 12 10 10 10 11 10 9 10 11 11 10 11 11 10 10 12 13 13 13 12 12 13 12 6 7 11 6 7 8 8 8
8 6 6 10 12 11 14 15 14 15 15 13 11 10 9 9 11 10 8 9 8 7 11 11 10 10 10 10 10 10 11 13 14 14 6 7 8 13 9 6 8 9 9
7 6 6 9 13 13 11 11 11 10 9 11 10 7 10 9 8 8 9 8 9 9 10 9 9 9 10 10 11 12 13 13 14 10 6 6 6 10 14 4 5 7 8
7 6 8 12 14 13 12 12 12 11 11 11 12 11 12 12 11 10 9 9 9 9 9 9 9 10 10 11 11 12 13 14 12 7 6 7 6 12 12 13 2 3 5
8 7 7 12 15 14 13 14 13 14 14 14 14 14 13 12 12 11 10 10 10 10 10 10 10 11 12 12 12 13 15 15 8 7 6 6 6 13 13 12 10 1 2
9 7 7 9 11 12 14 14 15 16 15 14 14 13 13 12 12 11 11 10 10 10 10 10 11 11 11 11 12 12 14 14 8 7 6 6 14 13 12 13 15 13 5
6 6 6 6 8 10 11 13 15 16 16 15 14 13 12 12 11 11 10 10 10 10 10 11 11 11 11 11 12 12 13 13 7 4 6 5 13 13 13 14 15 14 14
6 6 6 6 6 6 6 10 11 14 14 14 14 13 12 11 11 11 8 10 11 10 11 11 11 11 11 11 12 12 12 12 6 6 4 5 13 13 13 13 13 14 14
6 7 7 7 6 6 5 5 8 11 12 12 11 11 9 4 6 6 7 11 11 11 10 11 10 10 10 10 11 11 10 3 5 4 3 13 13 12 12 12 12 12 12
11 10 8 7 7 6 4 5 5 5 4 5 5 6 4 5 4 4 7 10 11 11 10 10 10 9 7 4 4 7 3 5 4 4 3 14 14 13 11 11 11 11 12
13 9 11 10 7 7 5 4 3 3 3 4 6 6 5 4 3 3 3 3 4 7 3 5 4 3 4 3 3 3 4 4 3 3 6 14 13 12 11 10 10 11 11
14 16 12 11 10 8 5 5 5 5 4 4 5 7 5 3 4 4 3 4 4 3 5 4 2 3 4 4 4 4 4 4 2 3 5 12 12 12 11 10 9 9 10
15 15 16 14 13 11 10 6 6 6 6 6 5 6 5 5 5 4 4 3 3 3 4 4 3 3 3 4 4 4 4 4 5 3 3 10 11 12 12 10 10 10 11
15 17 15 17 16 13 12 11 9 7 7 6 5 6 7 5 5 4 4 4 4 3 3 4 3 3 3 3 3 4 5 4 5 5 3 4 11 11 11 11 11 12 12
17 12 18 18 16 17 16 12 9 9 8 7 7 7 7 6 6 6 5 4 4 4 5 4 3 2 2 2 4 4 4 5 5 5 4 4 5 10 11 12 12 13 11
14 19 16 16 19 18 16 12 9 8 8 7 6 6 7 7 8 6 5 5 5 4 4 4 3 2 2 3 3 4 4 3 4 5 4 4 4 4 8 14 14 15 14
19 16 17 19 20 20 15 11 10 10 9 7 6 6 8 8 8 7 5 5 5 4 4 3 2 2 2 3 4 4 4 4 4 3 5 6 7 6 5 14 18 18 19
15 16 16 16 18 17 11 8 5 6 5 5 7 7 9 7 8 7 5 6 5 4 4 2 3 2 2 1 2 3 3 3 2 3 5 4 6 7 6 7 6 8 17
11 15 18 18 16 15 12 11 8 11 8 6 6 10 10 8 8 7 5 5 5 5 5 5 3 3 3 3 2 3 3 5 4 5 4 4 5 5 6 5 4 4 5
15 15 15 17 17 16 13 11 5 9 3 4 5 7 9 9 9 8 8 7 7 5 6 5 4 3 2 4 3 1 4 4 3 4 4 3 5 4 6 7 6 6 5
11 16 17 19 19 18 14 9 5 6 4 3 4 6 8 10 9 8 8 7 6 5 6 5 5 6 4 1 3 3 2 2 3 2 2 3 5 4 4 5 6 6 6
14 9 12 15 17 15 17 15 14 12 10 9 9 7 8 9 9 8 8 7 6 4 5 5 5 4 5 5 2 3 4 3 2 4 3 1 3 4 5 4 4 4 5
8 11 11 13 15 15 17 17 14 13 9 5 5 10 10 8 10 10 10 8 7 4 4 6 5 5 2 4 4 3 2 2 3 3 4 4 4 1 2 3 4 3 3
6 9 11 13 14 14 17 16 17 18 11 10 10 11 10 8 8 10 10 10 8 8 7 6 6 7 5 4 2 4 4 4 4 4 2 2 3 3 6 4 3 3 3
Wind_Direction
215 190 196 175 179 177 168 168 164 159 159 147 138 134 126 119 109 95 82 71 77 83 82 70 62 51 45 44 45 41 46 31 15 9 6 11 1 347 38 64 43 32 30
145 175 187 177 177 178 177 174 177 171 153 148 140 132 124 123 120 104 85 72 69 76 73 67 54 36 30 36 33 46 45 31 11 3 1 3 1 14 89 70 32 19 29
152 169 169 176 163 165 163 164 162 159 152 139 126 126 126 110 100 88 80 75 73 71 73 68 62 48 37 33 26 29 26 19 12 4 2 1 349 2 54 58 52 47 37
155 158 165 166 165 167 163 155 160 157 142 134 123 112 112 103 92 89 84 68 72 80 66 60 56 48 43 41 35 30 25 19 14 10 2 358 356 354 1 38 38 26 24
156 158 167 171 179 171 164 156 144 145 140 133 130 159 129 109 119 118 110 99 92 89 85 75 66 52 44 36 36 29 23 18 15 7 1 354 357 353 350 350 39 34 17
157 156 174 179 188 182 173 166 158 161 170 154 159 156 145 138 136 127 114 103 98 90 82 75 67 63 56 49 46 35 28 28 23 5 3 354 353 344 342 343 48 39 33
161 165 171 182 190 186 183 178 171 177 177 169 162 154 147 145 140 134 125 119 109 97 89 78 71 69 65 58 49 42 41 34 30 10 9 10 344 357 0 1 343 175 30
159 166 170 180 176 182 184 176 180 178 169 166 157 156 152 146 142 136 127 122 111 104 99 96 86 76 68 62 55 47 43 41 30 20 11 4 2 8 9 8 13 3 355
154 163 171 171 175 183 181 173 179 168 170 166 164 160 155 143 137 130 120 120 112 107 100 90 80 77 72 62 55 47 43 38 38 21 11 352 1 9 10 11 5 358 1
172 181 180 178 174 176 174 173 175 168 170 167 165 155 144 143 142 134 118 124 111 103 96 87 77 71 68 64 54 45 40 31 27 14 10 356 8 8 7 5 3 360 354
207 198 185 179 180 172 173 180 170 163 167 163 153 143 126 122 132 126 137 121 116 107 99 89 80 72 66 59 54 46 42 29 25 9 359 9 6 2 2 3 357 355 354
207 205 191 182 180 170 166 170 156 151 147 141 140 128 132 141 139 126 108 114 108 106 105 99 90 77 64 46 37 38 31 23 23 7 357 6 1 358 359 357 355 355 353
204 198 198 187 180 169 176 162 161 149 148 156 159 156 155 147 138 119 107 120 123 110 90 87 77 74 80 70 48 37 33 32 16 7 358 2 356 353 352 357 359 357 353
193 199 191 188 183 182 164 178 169 164 167 173 178 167 153 152 158 154 154 148 134 137 122 114 104 98 77 73 66 47 27 27 18 353 354 357 357 358 359 3 1 3 5
205 199 195 185 189 186 181 174 173 181 182 183 177 174 158 162 167 160 167 158 147 134 131 131 111 86 61 46 37 31 21 18 6 6 343 359 3 7 5 8 15 16 16
205 205 188 193 190 181 190 186 186 181 180 177 178 182 171 165 166 162 167 170 155 150 137 126 126 101 65 52 25 14 2 8 9 3 353 345 4 9 13 16 16 22 21
213 196 195 190 187 187 191 186 184 184 178 184 184 179 173 168 167 166 165 171 176 159 135 126 109 91 60 22 18 358 360 5 2 9 357 349 354 4 8 9 21 21 21
200 198 190 191 190 190 190 184 182 180 181 184 178 170 172 172 168 165 167 185 171 151 145 126 124 88 65 32 345 342 347 8 13 14 10 10 1 7 4 19 31 27 23
201 195 194 191 191 190 185 178 179 176 182 180 166 174 177 174 173 168 172 179 160 157 153 150 92 120 53 2 331 336 346 3 19 18 28 17 21 25 26 31 27 26 22
198 195 193 191 190 184 172 160 147 166 173 164 181 182 177 181 170 165 168 172 161 150 155 151 140 89 115 352 327 348 0 32 66 55 24 26 40 31 29 30 21 4 2
190 189 189 184 183 170 171 171 180 191 184 184 182 178 179 175 172 168 165 162 165 170 175 158 126 112 31 7 29 10 3 37 72 37 55 63 45 28 37 25 4 351 351
198 196 187 186 178 183 181 185 172 171 163 174 167 175 179 172 170 169 171 177 176 159 165 165 140 116 81 8 104 94 16 345 14 31 38 62 31 31 11 6 357 353 353
198 190 189 185 180 182 174 144 91 89 68 107 180 188 186 177 175 172 174 173 174 172 176 165 154 144 143 17 37 134 107 215 323 336 17 28 55 14 359 346 349 346 351
219 184 181 178 175 179 169 169 169 180 181 194 190 185 179 175 176 169 168 169 177 183 176 168 163 153 131 149 86 54 52 107 159 324 337 353 10 352 338 325 317 320 333
178 170 169 166 174 174 176 182 179 184 181 145 143 161 175 176 176 176 173 168 170 186 180 162 151 154 147 144 151 155 122 101 101 142 283 324 323 239 286 256 270 280 321
167 154 156 163 176 175 181 185 187 188 169 165 166 176 181 182 182 184 179 175 166 167 174 177 163 164 171 165 160 155 158 159 171 149 220 269 222 264 293 277 299 320 12